Flag for U.S.A. Weather past 2 weeks in Independence, Missouri, U.S.A.

Now
29 °F

Sunny.


Feels Like: 22 °F
Forecast: 32 / 59 °F
Wind: 7 mph from Southwest

Location: Lee's Summit Municipal Airport

Current Time: Jan 26, 2015 at 8:36:04 AM

Latest Report: Jan 26, 2015 at 7:53 AM


Visibility: 10 mi

Pressure: 30.04 "Hg

Humidity: 89%

Dew point: 26 °F

Location of IndependenceLocation

Historic Weather in Independence — Graph

°F

Independence temperature yesterday

Maximum temperature yesterday: 47 °F (at 1:53 AM)
Minimum temperature yesterday: 32 °F (at 10:53 PM)
Average temperature yesterday: 39 °F

Past Weeks' High & Low Weather Summary

 TemperatureHumidityPressure
High64 °F (Jan 19, 2:53 PM)97% (Jan 11, 6:53 PM)30.73 "Hg (Jan 11, 6:53 PM)
Low5 °F (Jan 13, 5:53 AM)23% (Jan 19, 1:53 PM)29.63 "Hg (Jan 25, 3:53 AM)
Average36 °F61%30.16 "Hg
* Reported Jan 11 6:53 AM — Jan 26 6:53 AM, Independence, Weather by CustomWeather, © 2014

Note: Actual official high and low records may vary slightly from our data, if they occured in-between our weather recording intervals... More about our weather records

Advertising

Independence weather history for previous 24 hours

 ConditionsComfort  
Time TempWeatherWind HumidityBarometerVisibility
6:53 AM
Jan 26
26 °FClear.8 mph92%30.06 "Hg9 mi
5:53 AM28 °FClear.9 mph89%30.04 "Hg8 mi
4:53 AM26 °FClear.7 mph92%30.09 "Hg7 mi
3:53 AM27 °FClear.5 mph92%30.09 "Hg8 mi
2:53 AM27 °FClear.3 mph92%30.11 "Hg8 mi
1:53 AM29 °FClear.No wind89%30.11 "Hg10 mi
12:53 AM29 °FClear.No wind89%30.12 "Hg10 mi
11:53 PM
Jan 25
32 °FClear.No wind82%30.13 "Hg10 mi
10:53 PM32 °FPassing clouds.6 mph82%30.13 "Hg10 mi
9:53 PM35 °FOvercast.8 mph75%30.14 "Hg10 mi
8:53 PM36 °FOvercast.13 mph73%30.11 "Hg10 mi
7:53 PM37 °FOvercast.15 mph73%30.11 "Hg10 mi
6:53 PM37 °FMostly cloudy.10 mph79%30.09 "Hg10 mi
5:53 PM38 °FOvercast.18 mph79%30.05 "Hg10 mi
4:53 PM38 °FOvercast.18 mph79%30.01 "Hg10 mi
3:53 PM38 °FOvercast.18 mph76%29.97 "Hg10 mi
2:53 PM38 °FOvercast.18 mph79%29.91 "Hg10 mi
1:53 PM38 °FOvercast.25 mph83%29.86 "Hg10 mi
12:53 PM38 °FOvercast.24 mph83%29.83 "Hg10 mi
11:53 AM38 °FOvercast.18 mph83%29.80 "Hg10 mi
11:04 AM37 °FOvercast.16 mph86%29.78 "Hg10 mi
10:53 AM37 °FOvercast.17 mph86%29.78 "Hg10 mi
9:53 AM37 °FOvercast.18 mph86%29.75 "Hg10 mi
9:04 AM37 °FLight snow. Fog.18 mph89%29.72 "Hg6 mi
8:53 AM37 °FLight snow. Fog.21 mph89%29.72 "Hg2 mi
Weather by CustomWeather, © 2014

See weather overviewHow to use our weather pages